Regional Weather Roundup
Issued by NWS

Home | Current Version | Previous Version | Graphics & Text | Print | Product List | Glossary On
Versions: 1 2 3 4 5 6 7 8 9 10 11 12 13 14 15 16 17 18 19 20 21 22 23 24 25 26 27 28 29 30 31 32 33 34 35 36 37 38 39 40 41 42 43 44 45 46 47 48 49 50
000
ASUS43 KIND 310309
RWRIN

WEATHER ROUNDUP FOR INDIANA
NATIONAL WEATHER SERVICE INDIANAPOLIS IN
1100 PM EDT MON MAY 30 2016

NOTE: "FAIR" INDICATES FEW OR NO CLOUDS BELOW 12,000 FEET WITH NO
SIGNIFICANT WEATHER AND/OR OBSTRUCTIONS TO VISIBILITY.

* - STATION DOES NOT REPORT WEATHER SUCH AS PRECIPITATION OR FOG.

+ - STATION NOT QUALITY CONTROLLED BY THE NATIONAL WEATHER SERVICE.
    USE DATA WITH CAUTION...ESPECIALLY DEWPOINT AND RELATIVE
    HUMIDITY OBSERVATIONS.

INZ001>003-010>013-019-020-310400-
NORTHWEST INDIANA

CITY           SKY/WX    TMP DP  RH WIND       PRES   REMARKS
GARY /AIRPORT/ MOCLDY    72  63  73 NE8       29.98R
KNOX *+        PTCLDY    70  46  43 NE5       29.98R
LA PORTE +     CLOUDY    70  60  69 N3        30.00R
MICHIGAN CITY+ MOCLDY    64  59  82 CALM      30.00R
MONTICELLO +   PTCLDY    73  53  48 CALM      29.97S
RENSSELAER +   PTCLDY    72  57  60 NE3       29.97R
VALPARAISO     CLOUDY    70  58  65 NE5       29.99R

$$

LMZ046-743>745-310400-
SOUTHERN LAKE MICHIGAN

STATION/POSITION TIME  TEMP    WIND        PRES    WAVE
                       AIR SEA DIR/SP/G            HT
                 (UTC) (F)     (DEG/KT/KT) (MB)    (FT)
BURNS HARBOR     0200   67      80/ 10/ 12 1015.6R
MICHIGAN CITY    0200   69      30/ 12/ 12   N/A
5NW MICH CITY    0300   65 62   50/  8/  8   N/A     1

$$

INZ004-005-014>016-021>024-310400-
NORTH CENTRAL INDIANA

CITY           SKY/WX    TMP DP  RH WIND       PRES   REMARKS
GOSHEN         CLEAR     66  53  63 CALM      29.99R
LOGANSPORT +   PTCLDY    72  55  56 CALM      29.98R
ROCHESTER +    PTCLDY    73  59  60 CALM      29.99R
SOUTH BEND     PTCLDY    67  57  70 N5        30.00R
WARSAW +       PTCLDY    66  55  68 CALM      29.99S

$$

INZ006>009-017-018-025>027-310400-
NORTHEAST INDIANA

CITY           SKY/WX    TMP DP  RH WIND       PRES   REMARKS
ANGOLA *+        N/A     64  55  72 CALM      30.01R
AUBURN +       CLOUDY    68  54  60 CALM      30.00S
FORT WAYNE     CLOUDY    73  52  47 N3        29.99R
HUNTINGTON +   CLOUDY   N/A N/A N/A CALM      29.98S

$$

INZ028-029-035-036-043>045-051>053-310400-
WEST CENTRAL INDIANA

CITY           SKY/WX    TMP DP  RH WIND       PRES   REMARKS
CRAWFORDSVL +  PTCLDY    71  57  61 SW3       29.99S
GREENCASTLE +  CLEAR     68  64  88 CALM      30.00S
LAFAYETTE      MOCLDY    69  60  73 CALM      29.97R
TERRE HAUTE    MOCLDY    71  62  73 CALM      29.99S

$$

INZ030>032-037>040-046>048-054>057-064-065-310400-
CENTRAL INDIANA

CITY           SKY/WX    TMP DP  RH WIND       PRES   REMARKS
CP ATTERBURY + CLEAR     64  61  88 CALM      30.00S
FISHERS *+     CLOUDY    68  61  77 CALM      29.99
FRANKFORT +      N/A     72  45  38 CALM      30.01R
GREENWOOD *+   PTCLDY    73  57  56 CALM      30.00S
INDIANAPOLIS   PTCLDY    73  58  59 SW5       29.98R
-EAGLE CREEK   PTCLDY    76  58  53 CALM      29.98S
KOKOMO *+      MOCLDY    70  55  60 NE6       29.98R
MARION +       PTCLDY    72  56  58 CALM      29.99S
SHELBYVILLE    MOCLDY    74  56  53 W5        29.98S
ZIONSVILLE +   PTCLDY    69  59  69 CALM      30.00S

$$

INZ033-034-041-042-049-050-058-059-310400-
EAST CENTRAL INDIANA

CITY           SKY/WX    TMP DP  RH WIND       PRES   REMARKS
MUNCIE         CLOUDY    72  57  59 CALM      29.99R

$$

INZ060-061-067>069-081>083-085>088-310400-
SOUTHWEST INDIANA

CITY           SKY/WX    TMP DP  RH WIND       PRES   REMARKS
EVANSVILLE     CLOUDY    73  60  63 CALM      29.99R
HUNTINGBURG *+ CLOUDY    72  59  64 CALM      29.99S
WASHINGTON +   CLOUDY    69  69 100 CALM      29.98S

$$

INZ062-063-066-070>080-084-089>092-310400-
SOUTH CENTRAL AND SOUTHEAST INDIANA

CITY           SKY/WX    TMP DP  RH WIND       PRES   REMARKS
BEDFORD +      MOCLDY    68  64  88 CALM      29.99R
BLOOMINGTON    CLOUDY    67  62  84 CALM      30.00S
MADISON *+     PTCLDY    68  61  77 N3        30.02S
NORTH VERNON + CLEAR     68  68 100 CALM      30.00R FOG
SEYMOUR +      PTCLDY    70  63  78 CALM      29.99R

$$




USA.gov is the U.S. government's official web portal to all federal, state and local government web resources and services.